Temperature
9 10 9 9 9 10 9 8 8 10 11 12 12 12 13 13 13 13 12 12 11 10 10 9 9 8 8 8 9 9 9 9 9 9 9 8 8 7 7 6 6 5 5 4
8 9 9 9 9 10 10 10 10 10 10 12 13 13 13 12 12 12 12 11 11 10 10 9 9 9 8 9 9 9 9 9 9 8 8 8 7 6 6 5 5 4 4 3
7 9 8 7 9 9 10 10 10 9 10 11 11 11 11 11 11 11 11 11 11 10 10 9 9 9 9 9 9 9 9 9 8 8 8 7 7 6 5 4 4 3 3 3
7 7 6 9 10 10 10 10 10 10 10 10 10 11 10 10 10 9 9 10 10 10 10 9 9 9 9 9 9 9 9 8 8 8 7 7 6 5 4 4 3 3 2 2
6 6 7 9 9 10 9 9 10 10 10 10 10 10 9 9 8 8 8 9 9 9 9 9 9 9 9 9 9 9 9 8 8 7 7 6 5 5 4 3 3 2 2 2
6 6 7 8 8 9 9 8 8 9 9 9 9 7 7 8 8 8 8 8 8 8 8 9 8 8 8 8 8 9 8 8 7 7 6 6 5 4 3 3 2 2 1 1
5 6 7 7 8 9 7 6 7 8 7 7 7 7 7 7 7 7 7 7 8 8 8 8 8 8 8 8 8 8 7 7 7 6 6 5 4 3 3 2 2 1 1 1
6 5 6 7 7 6 6 6 6 6 6 6 6 7 7 7 7 7 7 7 7 7 7 7 7 7 7 7 7 7 6 6 6 5 5 4 3 3 2 2 1 1 1 1
6 6 6 6 6 5 5 5 5 5 5 5 6 6 6 6 6 6 6 6 6 6 6 6 6 6 6 6 6 6 5 5 5 4 4 3 3 2 2 1 1 1 1 1
5 5 6 6 5 5 4 4 4 4 4 5 5 5 5 5 5 6 6 6 6 6 6 6 6 6 6 6 5 5 5 4 4 3 3 3 2 2 1 1 1 1 1 1
5 5 5 5 4 4 3 3 3 4 4 4 4 4 4 4 5 5 5 5 5 5 5 5 5 5 5 5 5 4 4 4 3 3 2 2 2 2 1 1 1 1 1 1
3 3 3 3 3 3 2 2 2 3 3 3 3 3 4 4 4 4 4 5 5 5 5 5 5 5 5 4 4 4 3 3 3 2 2 2 2 1 1 1 1 0 0 0
2 2 2 2 2 2 2 1 2 2 2 2 2 3 3 3 3 3 4 4 4 4 4 4 4 4 4 4 3 3 3 3 2 2 2 2 1 1 1 1 0 0 0 0
2 2 1 1 1 1 1 1 1 1 1 2 2 2 2 2 2 3 3 3 3 3 3 3 3 3 3 3 3 3 2 2 2 2 1 1 1 1 1 0 0 0 0 0
1 1 1 0 0 0 0 0 0 0 1 1 1 1 1 1 2 2 2 2 2 3 3 3 3 2 2 2 2 2 2 2 2 1 1 1 1 0 0 0 0 0 0 0
1 0 -0 -0 -0 -0 -0 -1 -0 -0 -0 0 0 0 1 1 1 1 1 1 2 2 2 2 2 2 2 2 2 2 2 1 1 1 1 0 0 0 0 -0 0 0 0 0
-0 -0 -1 -1 -1 -1 -1 -1 -1 -1 -1 -0 -0 -0 -0 0 0 0 1 1 1 1 1 1 1 1 1 1 1 1 1 1 0 0 0 0 -0 -0 -0 -0 -0 -0 -0 -0
-0 -1 -1 -1 -2 -2 -2 -1 -1 -1 -1 -1 -1 -1 -1 -0 -0 -0 -0 -0 -0 0 0 0 0 0 0 0 0 0 0 0 -0 -0 -0 -0 -0 -0 -1 -1 -1 -1 -1 -1
-0 -1 -1 -1 -2 -2 -2 -2 -2 -2 -2 -1 -1 -1 -1 -1 -1 -1 -1 -1 -1 -1 -1 -1 -1 -1 -1 -1 -1 -1 -1 -1 -1 -1 -1 -1 -1 -1 -1 -1 -1 -1 -1 -1
-0 -0 -1 -1 -1 -2 -2 -2 -2 -2 -2 -2 -2 -2 -2 -2 -1 -1 -1 -1 -1 -1 -1 -1 -1 -1 -1 -1 -1 -1 -1 -1 -1 -1 -1 -2 -2 -2 -2 -1 -1 -1 -2 -2
0 -0 -1 -1 -1 -1 -2 -2 -2 -2 -2 -2 -2 -2 -2 -2 -2 -2 -2 -2 -2 -2 -2 -2 -2 -2 -2 -2 -2 -2 -2 -2 -2 -2 -2 -2 -2 -2 -2 -2 -2 -2 -2 -2
0 -0 -0 -1 -1 -1 -1 -2 -2 -2 -2 -2 -2 -2 -2 -2 -2 -2 -2 -2 -2 -2 -2 -2 -2 -2 -2 -2 -2 -2 -2 -3 -3 -3 -3 -3 -3 -3 -3 -3 -3 -3 -3 -3
-0 -0 -1 -1 -1 -1 -1 -2 -2 -2 -2 -2 -2 -2 -2 -2 -2 -2 -2 -2 -2 -2 -2 -2 -2 -2 -3 -3 -3 -3 -3 -3 -3 -3 -3 -3 -3 -3 -4 -4 -4 -4 -4 -4
-0 -0 -1 -1 -1 -1 -1 -1 -2 -2 -2 -2 -2 -2 -2 -2 -2 -2 -3 -3 -3 -3 -3 -3 -3 -3 -3 -3 -3 -3 -3 -4 -4 -4 -4 -4 -4 -4 -4 -4 -4 -4 -4 -5
-0 -1 -1 -1 -1 -1 -1 -2 -2 -2 -2 -2 -2 -2 -2 -3 -3 -3 -3 -3 -3 -3 -3 -3 -3 -3 -3 -3 -3 -4 -4 -4 -4 -4 -4 -4 -4 -5 -5 -5 -5 -5 -5 -5
-1 -1 -1 -1 -1 -2 -2 -2 -2 -2 -2 -2 -2 -2 -2 -3 -3 -3 -3 -3 -3 -3 -3 -3 -4 -4 -4 -4 -4 -4 -4 -4 -4 -4 -5 -5 -5 -5 -5 -5 -5 -5 -5 -5
-1 -1 -1 -1 -2 -2 -2 -2 -2 -2 -3 -3 -3 -2 -3 -3 -3 -3 -3 -3 -3 -4 -4 -4 -4 -4 -4 -4 -4 -4 -5 -5 -5 -5 -5 -5 -5 -5 -5 -5 -6 -6 -6 -6
Wind_Speed
3 3 1 4 7 9 9 8 6 5 6 5 3 3 3 3 2 2 1 4 5 6 7 8 8 9 9 8 9 9 8 8 8 8 7 7 6 6 5 4 3 3 4 4
3 4 4 6 7 9 10 10 11 10 10 7 5 4 5 5 5 5 5 4 5 6 7 8 9 9 9 9 9 9 9 8 8 8 8 7 7 6 5 4 4 3 4 4
2 2 2 6 8 10 9 7 8 10 8 5 5 5 6 6 6 6 6 5 4 5 6 7 9 10 11 10 9 10 9 8 9 9 8 8 7 6 6 5 4 4 4 4
1 0 5 3 2 1 5 6 5 5 4 4 4 5 5 5 5 6 7 6 5 4 4 6 7 8 10 10 11 10 9 9 10 9 9 8 7 7 6 5 5 4 4 4
2 3 5 2 1 1 1 2 2 2 4 4 5 4 3 6 5 5 6 6 5 4 3 3 5 8 9 10 10 10 10 10 10 10 10 9 9 7 6 5 4 4 4 4
2 3 3 2 3 3 2 0 6 6 5 6 6 3 2 6 6 6 6 6 6 6 4 1 2 6 8 9 10 10 10 10 10 10 10 10 9 7 5 5 5 5 5 5
4 4 2 3 2 2 0 1 6 7 7 6 4 3 4 5 5 5 5 5 6 6 5 4 3 4 6 7 8 7 8 8 9 9 9 9 8 7 7 6 6 6 6 5
3 4 2 4 3 3 3 4 6 7 7 6 6 6 5 5 4 4 4 4 5 4 4 5 4 3 3 4 4 6 7 8 8 8 8 8 8 8 8 8 7 6 6 6
1 0 2 3 4 5 6 5 6 7 7 7 7 6 6 5 4 3 3 3 3 2 2 2 2 2 2 3 5 6 7 7 8 8 7 8 8 9 8 8 7 6 6 6
2 0 1 3 5 6 6 6 7 7 8 7 7 7 6 5 3 3 3 1 1 1 1 0 1 1 2 3 5 6 7 7 7 8 8 8 7 7 8 8 8 7 7 7
3 1 2 3 6 8 8 8 7 7 7 6 6 7 6 5 4 3 3 2 2 2 1 0 1 1 2 4 5 6 6 6 7 7 7 7 8 8 9 8 9 9 7 7
1 4 4 5 7 8 8 8 8 8 7 7 6 6 6 5 4 3 3 2 2 2 2 1 1 2 2 4 5 6 5 6 6 6 6 6 6 6 10 10 13 14 11 9
2 4 5 7 6 6 7 9 9 8 7 8 6 5 6 5 4 4 4 2 2 3 2 2 1 1 2 3 5 6 6 6 5 6 6 6 6 7 6 8 13 14 14 15
3 4 5 5 6 8 8 9 8 7 6 6 6 5 5 5 5 4 4 3 3 3 3 2 1 1 1 3 4 5 5 6 6 6 6 6 7 7 6 6 6 6 12 18
2 3 6 8 8 8 7 8 9 8 7 6 5 5 5 5 5 4 4 3 3 3 2 2 2 2 2 1 3 5 5 4 5 5 5 6 6 6 6 7 7 6 5 8
4 5 6 7 8 8 8 8 8 8 7 7 6 5 5 5 4 3 3 3 3 2 2 3 3 4 3 3 3 4 4 6 6 5 5 5 6 6 7 7 7 7 7 7
4 5 5 7 8 9 8 8 8 8 7 7 6 5 5 5 4 3 3 2 2 2 1 2 3 4 4 4 3 3 3 4 6 5 5 5 6 7 7 7 7 8 8 8
4 5 5 6 7 8 8 8 7 7 6 6 6 5 5 4 4 4 3 3 3 2 1 2 3 4 4 4 3 3 3 3 3 4 5 5 6 6 6 7 8 8 7 7
4 5 5 5 5 6 6 6 6 6 6 5 5 5 5 4 4 4 3 3 3 3 2 3 6 5 4 4 5 3 3 3 4 4 4 6 6 6 6 6 7 7 6 6
5 5 5 5 5 5 6 6 6 5 5 4 5 5 5 4 4 3 4 3 2 2 2 3 4 4 4 4 5 3 4 4 4 4 4 4 5 5 5 5 6 6 6 6
6 6 6 6 6 6 6 6 5 6 5 4 4 5 5 5 4 3 3 4 2 1 2 5 3 3 4 5 6 4 4 4 4 4 3 3 4 4 4 5 5 5 5 5
6 6 6 6 6 6 6 5 5 6 6 5 5 5 5 6 5 4 4 4 3 3 3 3 3 4 6 7 4 4 4 4 4 3 3 3 4 4 4 4 4 4 5 5
6 6 6 7 7 7 6 6 6 6 6 6 6 6 6 5 4 4 5 3 2 4 3 3 5 7 8 5 3 3 4 4 4 4 4 4 4 4 4 5 4 4 5 5
6 7 7 6 6 7 8 7 6 6 6 6 6 7 6 5 5 4 5 5 5 5 3 5 7 8 7 3 3 3 3 3 4 4 4 4 4 4 4 4 4 4 4 5
7 7 7 7 7 7 8 7 7 7 7 6 7 7 6 5 5 4 3 4 6 6 4 5 7 7 4 3 3 3 3 3 4 4 4 4 4 4 4 4 4 5 5 5
7 7 7 7 7 6 5 5 5 5 5 6 6 5 5 5 5 5 4 5 6 6 5 4 4 5 3 3 3 4 3 4 5 4 4 4 5 5 5 5 6 5 5 5
7 6 6 6 6 6 5 5 6 6 6 6 6 5 4 4 4 5 5 5 4 4 4 4 3 3 3 3 4 4 3 3 4 4 4 4 4 4 5 5 5 5 5 5
Wind_Direction
280 296 236 220 215 214 216 215 222 254 262 269 292 303 308 321 326 320 253 202 196 192 192 184 179 175 169 163 156 154 155 157 155 145 134 129 131 132 129 127 121 118 119 115
265 248 247 255 243 233 230 232 241 260 272 287 304 315 319 326 323 312 297 265 218 201 199 191 183 177 170 166 162 160 163 162 150 142 140 143 145 147 147 144 137 133 131 130
253 197 272 259 238 230 229 229 235 248 259 300 314 325 333 335 327 314 304 293 258 220 210 200 188 178 175 170 160 164 166 160 155 153 154 155 156 155 158 158 154 155 152 148
277 212 235 234 17 253 236 244 248 263 299 321 327 324 327 335 335 328 327 317 296 258 226 205 184 173 167 160 163 168 169 165 163 161 160 158 160 166 166 159 160 163 155 145
237 250 261 209 108 38 318 297 351 336 339 345 340 324 17 24 10 345 331 331 326 311 272 212 179 165 160 161 164 170 175 173 169 166 164 165 170 170 163 159 163 162 155 156
256 263 258 66 53 18 4 90 23 19 12 4 358 351 349 3 4 357 356 354 345 338 344 21 144 144 153 162 168 180 180 172 167 166 167 171 172 167 160 160 166 162 167 177
243 251 272 31 343 350 346 40 7 13 14 9 359 329 325 350 5 360 358 356 350 355 14 27 65 118 150 163 179 176 161 156 159 162 166 167 166 164 162 165 168 175 184 197
215 225 233 26 30 40 33 13 5 4 360 350 336 329 337 345 351 354 3 9 6 12 23 26 44 93 146 173 166 146 146 151 155 158 164 165 164 166 170 173 180 188 194 206
282 196 47 29 48 43 22 1 355 348 340 334 327 327 332 338 350 360 7 14 8 14 29 31 35 74 155 166 143 141 146 155 158 162 167 168 170 174 178 184 190 195 199 206
296 120 21 40 48 31 11 346 335 331 326 324 321 326 331 328 334 342 340 348 351 343 340 246 152 118 162 153 148 151 162 166 168 173 176 178 182 183 189 195 199 200 204 207
265 327 8 58 27 2 345 337 332 329 326 327 326 323 324 322 325 330 327 336 337 324 324 291 164 171 160 156 156 168 175 177 178 182 184 189 194 199 200 206 204 203 206 200
293 17 340 318 338 340 332 332 331 325 323 325 321 315 318 315 321 325 321 324 318 314 316 306 229 199 175 169 172 179 187 185 184 187 189 193 198 211 216 215 221 221 213 205
303 324 304 294 312 333 327 323 320 316 310 309 310 310 313 312 317 320 317 325 319 310 301 293 272 235 195 184 190 198 200 195 191 192 194 197 198 205 218 225 230 233 230 227
285 300 291 306 317 318 313 313 311 305 302 301 305 307 310 309 311 317 322 329 323 310 303 303 290 279 258 206 205 214 212 207 201 202 201 203 206 210 211 213 219 229 231 233
273 305 298 304 306 309 313 311 308 306 308 307 307 303 306 304 305 311 324 334 324 317 328 343 337 336 341 277 232 229 225 218 208 206 205 207 208 211 215 220 225 225 217 226
311 304 298 302 308 311 311 311 309 308 309 307 307 308 306 299 296 299 318 335 326 324 344 351 339 338 330 300 270 247 237 232 221 215 213 214 213 216 221 225 228 228 229 223
289 294 302 306 308 311 314 314 310 308 308 309 312 313 308 305 304 310 327 345 335 320 342 344 333 332 321 309 294 270 252 241 230 226 223 221 221 223 226 227 230 234 235 226
252 274 287 292 299 307 313 318 317 313 309 308 309 306 304 306 307 315 323 325 315 300 359 5 341 327 322 323 314 294 272 256 241 237 235 231 231 228 227 230 233 238 242 238
251 265 274 282 288 293 296 300 305 304 303 304 304 301 298 297 300 305 310 306 301 299 325 348 336 330 321 322 321 301 288 272 258 247 242 248 246 235 232 234 237 238 238 233
247 255 262 270 272 273 280 287 292 295 298 301 301 301 298 299 301 301 301 291 274 276 318 327 326 318 318 317 322 302 293 285 276 268 255 247 248 248 243 241 241 242 240 238
250 255 258 264 268 270 270 276 283 287 291 293 290 291 292 295 293 288 288 290 283 303 315 314 313 309 315 319 319 305 298 295 293 285 278 271 266 263 258 254 251 249 246 244
250 253 256 261 266 270 266 262 266 274 280 282 281 281 284 287 287 280 262 254 270 299 304 294 294 308 316 318 309 303 300 297 295 292 285 280 277 277 273 268 263 260 255 251
251 251 254 257 262 268 269 262 259 259 262 266 269 271 271 273 274 275 283 271 263 290 293 283 296 307 314 315 306 303 302 300 297 296 295 289 283 281 280 278 275 272 268 263
259 259 258 261 265 268 269 264 256 252 253 259 259 257 259 269 271 249 247 272 283 289 281 286 296 303 310 304 295 295 296 297 297 297 297 294 289 284 282 281 279 276 273 271
264 267 266 263 261 260 261 262 263 259 256 256 256 251 242 235 245 261 259 262 276 283 279 287 294 300 300 287 287 288 288 285 286 290 289 293 291 290 287 284 283 283 280 275
261 262 261 256 254 256 257 256 257 258 255 261 263 253 242 236 239 247 252 253 257 270 269 268 277 286 281 279 280 283 283 290 296 295 289 288 287 287 285 285 284 283 282 279
263 261 264 268 264 253 249 250 256 259 253 253 264 259 245 240 238 241 246 249 252 253 254 256 258 260 266 271 275 277 279 280 280 281 283 282 282 282 283 283 283 283 282 280
Height
1478 1476 1476 1477 1478 1478 1482 1483 1486 1479 1475 1472 1471 1472 1472 1472 1472 1472 1473 1473 1473 1473 1474 1474 1475 1477 1479 1481 1483 1486 1488 1490 1492 1493 1494 1495 1496 1496 1496 1496 1496 1495 1495 1495
1480 1476 1476 1477 1475 1475 1475 1476 1477 1476 1475 1470 1470 1470 1470 1470 1470 1471 1471 1471 1470 1470 1471 1472 1472 1474 1475 1478 1480 1483 1485 1487 1488 1489 1491 1491 1492 1492 1492 1492 1492 1492 1492 1492
1481 1476 1478 1481 1472 1471 1471 1469 1472 1474 1473 1470 1470 1470 1470 1470 1470 1469 1469 1468 1468 1467 1468 1468 1469 1470 1472 1474 1477 1479 1481 1483 1484 1485 1487 1487 1488 1488 1489 1489 1489 1489 1489 1489
1482 1482 1486 1473 1465 1464 1466 1466 1467 1467 1468 1468 1469 1469 1469 1469 1468 1467 1466 1466 1465 1464 1464 1465 1466 1467 1469 1471 1473 1475 1477 1479 1480 1481 1482 1483 1484 1484 1485 1485 1485 1486 1486 1486
1483 1482 1476 1469 1467 1466 1467 1468 1467 1467 1468 1468 1467 1467 1468 1468 1467 1466 1464 1463 1462 1461 1461 1461 1462 1463 1465 1467 1469 1471 1472 1474 1476 1477 1478 1479 1480 1481 1481 1482 1482 1483 1483 1484
1482 1482 1479 1472 1469 1467 1470 1472 1471 1469 1469 1469 1468 1470 1470 1467 1465 1463 1462 1460 1459 1458 1458 1458 1459 1460 1461 1463 1464 1466 1468 1470 1471 1473 1474 1475 1476 1477 1477 1478 1479 1479 1480 1481
1484 1482 1475 1473 1470 1469 1476 1478 1474 1472 1471 1470 1470 1471 1470 1467 1464 1462 1460 1458 1457 1456 1455 1456 1456 1457 1458 1459 1461 1463 1464 1465 1467 1468 1470 1471 1472 1473 1474 1474 1475 1476 1477 1478
1479 1481 1481 1475 1472 1475 1478 1476 1474 1473 1472 1471 1470 1468 1467 1465 1463 1461 1459 1457 1456 1455 1454 1454 1454 1454 1455 1456 1457 1459 1460 1461 1462 1464 1465 1466 1467 1468 1469 1470 1471 1472 1474 1475
1478 1480 1477 1475 1476 1477 1476 1475 1474 1473 1472 1470 1468 1467 1465 1464 1462 1460 1459 1457 1455 1454 1453 1452 1452 1452 1452 1453 1454 1455 1456 1457 1458 1460 1461 1462 1463 1464 1465 1466 1467 1468 1470 1471
1477 1476 1476 1476 1476 1475 1475 1475 1473 1471 1470 1468 1467 1465 1463 1462 1460 1459 1457 1456 1454 1453 1452 1451 1450 1450 1450 1451 1451 1452 1453 1454 1454 1455 1456 1458 1459 1460 1461 1462 1463 1464 1465 1467
1476 1476 1475 1475 1476 1475 1474 1472 1470 1468 1467 1466 1464 1462 1461 1459 1458 1457 1456 1454 1453 1452 1451 1450 1449 1448 1448 1448 1448 1449 1449 1450 1451 1452 1453 1453 1455 1456 1457 1458 1459 1461 1462 1463
1478 1478 1478 1476 1475 1473 1471 1470 1468 1466 1464 1462 1461 1460 1458 1456 1455 1454 1453 1452 1451 1450 1449 1448 1447 1446 1446 1446 1446 1446 1446 1447 1447 1448 1449 1450 1450 1451 1452 1454 1455 1456 1457 1458
1477 1476 1475 1474 1472 1471 1469 1467 1465 1463 1461 1459 1458 1456 1455 1453 1452 1451 1450 1449 1448 1447 1446 1445 1444 1443 1443 1443 1443 1442 1443 1443 1444 1444 1445 1445 1446 1447 1448 1449 1450 1451 1452 1453
1474 1474 1472 1470 1469 1467 1465 1463 1461 1459 1457 1456 1454 1452 1451 1449 1448 1447 1446 1445 1444 1443 1442 1441 1441 1440 1439 1439 1439 1439 1439 1439 1439 1440 1440 1441 1441 1442 1443 1444 1444 1445 1447 1448
1471 1471 1470 1467 1465 1464 1462 1459 1457 1455 1453 1452 1450 1449 1447 1445 1444 1443 1442 1441 1440 1439 1438 1437 1437 1436 1436 1435 1435 1435 1435 1435 1435 1435 1436 1436 1437 1437 1438 1438 1439 1440 1441 1442
1468 1467 1466 1464 1462 1460 1458 1456 1454 1451 1450 1448 1446 1445 1443 1442 1440 1439 1438 1437 1436 1435 1434 1434 1433 1432 1431 1431 1431 1430 1430 1430 1430 1431 1431 1431 1431 1432 1432 1433 1433 1434 1435 1436
1465 1464 1462 1461 1459 1457 1455 1453 1450 1448 1446 1444 1443 1441 1440 1438 1437 1436 1435 1434 1433 1432 1431 1430 1429 1428 1427 1427 1426 1426 1426 1426 1426 1426 1426 1426 1426 1426 1427 1427 1427 1428 1428 1430
1462 1461 1460 1458 1456 1454 1451 1449 1447 1445 1443 1441 1439 1438 1436 1435 1433 1432 1431 1430 1429 1428 1427 1426 1425 1424 1423 1423 1422 1422 1421 1421 1421 1421 1421 1421 1421 1421 1421 1421 1421 1421 1422 1423
1459 1458 1456 1455 1453 1451 1449 1446 1444 1442 1440 1438 1436 1435 1433 1432 1431 1430 1428 1427 1426 1425 1424 1423 1422 1421 1420 1419 1418 1417 1417 1416 1416 1416 1416 1416 1416 1416 1416 1416 1415 1415 1415 1415
1456 1455 1453 1452 1450 1448 1446 1444 1442 1440 1438 1435 1434 1432 1430 1429 1428 1427 1426 1425 1423 1422 1421 1420 1419 1418 1416 1415 1414 1414 1413 1412 1412 1411 1411 1411 1411 1410 1410 1410 1409 1409 1409 1409
1452 1451 1450 1448 1447 1445 1443 1441 1439 1437 1435 1433 1431 1429 1428 1427 1425 1424 1423 1422 1421 1420 1418 1417 1416 1415 1413 1412 1411 1410 1409 1408 1408 1407 1407 1406 1405 1405 1405 1404 1404 1403 1403 1402
1449 1448 1446 1445 1443 1441 1440 1438 1436 1434 1432 1430 1429 1427 1425 1424 1423 1421 1420 1419 1418 1417 1416 1414 1413 1412 1410 1409 1408 1407 1405 1404 1403 1403 1402 1401 1401 1400 1399 1399 1398 1397 1397 1396
1445 1444 1442 1441 1439 1437 1436 1434 1432 1431 1429 1427 1426 1424 1422 1421 1420 1418 1417 1416 1415 1414 1412 1411 1410 1409 1407 1406 1405 1403 1402 1401 1400 1399 1398 1397 1396 1395 1394 1394 1393 1392 1391 1390
1441 1439 1438 1436 1435 1433 1431 1430 1428 1427 1425 1424 1422 1421 1419 1418 1416 1415 1414 1413 1412 1410 1409 1408 1407 1406 1404 1403 1401 1400 1399 1397 1396 1395 1394 1393 1392 1391 1390 1389 1388 1387 1386 1385
1436 1435 1433 1431 1429 1427 1426 1425 1423 1422 1421 1419 1418 1417 1415 1414 1413 1411 1410 1409 1408 1407 1406 1405 1404 1402 1401 1400 1398 1397 1395 1394 1393 1391 1390 1389 1388 1386 1385 1384 1383 1382 1381 1380
1431 1429 1427 1426 1424 1422 1421 1420 1418 1417 1416 1414 1413 1412 1411 1410 1408 1407 1406 1405 1404 1403 1402 1401 1400 1399 1397 1396 1395 1394 1392 1391 1389 1388 1386 1385 1383 1382 1381 1379 1378 1377 1376 1375
1425 1424 1422 1420 1419 1417 1416 1414 1413 1412 1410 1409 1408 1407 1406 1405 1404 1403 1402 1401 1400 1399 1398 1397 1396 1395 1394 1392 1391 1390 1389 1387 1386 1384 1382 1381 1379 1378 1376 1375 1373 1372 1371 1370